Location: Most
(50.5133°N, 13.6207°E)
Time: 09:38:36
(UTC+02:00)

ISS - Pass Details

Date: 20 July 2018
Orbit: 402 x 408 km, 51.6° (Epoch: 17 July)

Event Time Altitude Azimuth Distance (km) Brightness Sun altitude
Rises 23:45:18 0° 251° (WSW) 2,319 0.0 -16.4°
Reaches altitude 10° 23:47:23 10° 250° (WSW) 1,462 -1.0 -16.5°
Maximum altitude 23:50:39 81° 165° (SSE) 416 -4.0 -16.7°
Drops below altitude 10° 23:53:57 10° 76° (ENE) 1,469 -1.1 -16.9°
Sets 23:56:02 0° 76° (ENE) 2,332 0.0 -17.0°
